Location: Albany
(35.0170°S, 117.8920°E)
Time: 09:35:49
(UTC+08:00)

S-56A Canister/Altair - Pass Details

Date: 26 January 2021
Orbit: 632 x 2501 km, 38.9° (Epoch: 25 February)

Event Time Altitude Azimuth Distance (km) Brightness Sun altitude
Rises 14:40:16 0° 280° (W) 5,661 12.5 55.1°
Reaches altitude 10° 14:43:42 10° 278° (W) 4,829 12.4 54.5°
Maximum altitude 14:58:17 80° 190° (S) 2,541 11.1 51.6°
Drops below altitude 10° 15:13:03 10° 102° (ESE) 4,877 11.3 48.7°
Sets 15:16:33 0° 100° (E) 5,718 11.6 48.0°
